Regional Weather Roundup
Issued by NWS

Home | Current Version | Previous Version | Text Only | Print | Product List | Glossary Off
Versions: 1 2 3 4 5 6 7 8 9 10 11 12 13 14 15 16 17 18 19 20 21 22 23 24 25 26 27 28 29 30 31 32 33 34 35 36 37 38 39 40 41 42 43 44 45 46 47 48 49 50

000
ASUS43 KBIS 010910
RWRND

NORTH DAKOTA REGIONAL WEATHER ROUNDUP
NATIONAL WEATHER SERVICE BISMARCK ND
300 AM CST WED MAR 01 2017

NOTE: "FAIR" INDICATES FEW OR NO CLOUDS BELOW 12,000 FEET WITH NO
SIGNIFICANT WEATHER AND/OR OBSTRUCTIONS TO VISIBILITY.


NDZ001>003-009>011-017-011000-
NORTHWEST NORTH DAKOTA

CITY           SKY/WX    TMP DP  RH WIND       PRES   REMARKS
WILLISTON      CLOUDY    17  13  84 NW10      29.97R WCI   5
MINOT          LGT SNOW  14  10  84 N3        29.93S FOG
MINOT AFB      FLURRIES  12   9  85 CALM      29.93S
$$

NDZ018>021-031>035-040>046-011000-
SOUTHWEST NORTH DAKOTA

CITY           SKY/WX    TMP DP  RH WIND       PRES   REMARKS
BISMARCK       LGT SNOW  15  12  88 NE8       29.92R FOG     WCI   4
DICKINSON      CLOUDY    24  21  88 NW17      29.86R WCI  11
GARRISON         N/A     15  11  83 NE3       29.90R
HETTINGER ARPT CLOUDY    25  22  88 NW15      29.89R WCI  13
$$

NDZ004>008-012>016-024-026-027-054-011000-
NORTHEAST NORTH DAKOTA

CITY           SKY/WX    TMP DP  RH WIND       PRES   REMARKS
GRAND FORKS    CLEAR      9   0  67 NW12      29.94R WCI  -6
GRND FRKS AFB  CLEAR      8   1  73 N7        29.94S WCI  -3
DEVILS LAKE    MOCLDY     4  -1  80 NW5       29.94R WCI  -5
$$

NDZ022-023-025-028>030-036>039-047>053-011000-
SOUTHEAST NORTH DAKOTA

CITY           SKY/WX    TMP DP  RH WIND       PRES   REMARKS
FARGO          CLOUDY    17  13  84 N14       29.90S WCI   3
JAMESTOWN      FAIR      12   9  87 NW9       29.90S WCI   0
$$




USA.gov is the U.S. government's official web portal to all federal, state and local government web resources and services.